NOAA 15

Last updated on Thu Nov 21 2024 00:02:19 GMT+0000 (Coordinated Universal Time)

1 25338U 98030A 24325.49087028 .00000336 00000+0 15629-3 0 9992 2 25338 98.5557 349.2789 0009501 223.3002 136.7433 14.26800403379476
UTC large
Height (km)
Speed (km/s)
/
Latitude / Longitude
Inclination (degrees)
Orbital Period (minutes)
Azimuth
Elevation
Range (km)
Doppler Factor

Next 0 passes for location: London (51.5072 / 0.1276)

Sorry there are no passes over London.